| time (UTC) | temp C | wind direction | speed KPH | gust KPH | rain 1hr cm | rain 24hr cm | rain mn cm | humidity % | barometer mb |
| 20260506231816 | 6 | 243 | 0.0 | 1.6 | 0.03 | 1.22 | 1.04 | 98 | 1008.3 |
| 20260506231342 | 6 | 243 | 0.0 | 1.6 | 0.03 | 1.22 | 1.04 | 98 | 1008.4 |
| 20260506230822 | 6 | 243 | 0.0 | 1.6 | 0.03 | 1.22 | 1.04 | 98 | 1008.2 |
| 20260506230331 | 6 | 243 | 0.0 | 1.6 | 0.00 | 1.19 | 1.02 | 98 | 1008.1 |
| 20260506225828 | 6 | 247 | 0.0 | 1.6 | 0.00 | 1.19 | 1.02 | 98 | 1008.0 |
| 20260506225315 | 6 | 247 | 0.0 | 1.6 | 0.00 | 1.19 | 1.02 | 98 | 1008.1 |
| 20260506224822 | 6 | 289 | 0.0 | 1.6 | 0.00 | 1.19 | 1.02 | 98 | 1008.3 |
| 20260506224350 | 6 | 289 | 0.0 | 3.2 | 0.00 | 1.19 | 1.02 | 98 | 1008.2 |
| 20260506223829 | 6 | 296 | 0.0 | 1.6 | 0.00 | 1.19 | 1.02 | 98 | 1008.0 |
| 20260506223316 | 6 | 296 | 0.0 | 1.6 | 0.00 | 1.19 | 1.02 | 98 | 1008.3 |
| 20260506222820 | 6 | 274 | 0.0 | 1.6 | 0.00 | 1.19 | 1.02 | 98 | 1008.4 |
| 20260506222348 | 6 | 274 | 0.0 | 1.6 | 0.00 | 1.19 | 1.02 | 98 | 1008.5 |
| 20260506221854 | 6 | 276 | 0.0 | 1.6 | 0.00 | 1.19 | 1.02 | 98 | 1008.3 |
| 20260506221313 | 6 | 277 | 0.0 | 1.6 | 0.00 | 1.19 | 1.02 | 98 | 1008.3 |
| 20260506220812 | 6 | 273 | 0.0 | 1.6 | 0.00 | 1.19 | 1.02 | 98 | 1008.2 |
| 20260506220319 | 6 | 91 | 0.0 | 1.6 | 0.00 | 1.19 | 1.02 | 97 | 1008.3 |
| 20260506215818 | 6 | 85 | 0.0 | 3.2 | 0.00 | 1.19 | 1.02 | 98 | 1008.5 |
| 20260506215325 | 6 | 289 | 0.0 | 3.2 | 0.00 | 1.19 | 1.02 | 98 | 1008.5 |
| 20260506214825 | 6 | 276 | 0.0 | 4.8 | 0.00 | 1.19 | 1.02 | 98 | 1008.4 |
| 20260506214311 | 6 | 297 | 0.0 | 4.8 | 0.03 | 1.19 | 1.02 | 98 | 1008.3 |
| 20260506213818 | 6 | 284 | 0.0 | 3.2 | 0.03 | 1.19 | 1.02 | 98 | 1008.1 |
| 20260506213317 | 6 | 243 | 0.0 | 3.2 | 0.03 | 1.19 | 1.02 | 98 | 1008.2 |
| 20260506212911 | 6 | 238 | 0.0 | 6.4 | 0.03 | 1.19 | 1.02 | 98 | 1008.2 |
| 20260506212326 | 6 | 294 | 1.6 | 8.0 | 0.05 | 1.19 | 1.02 | 98 | 1008.1 |
| 20260506211849 | 6 | 283 | 1.6 | 8.0 | 0.05 | 1.19 | 1.02 | 98 | 1008.0 |
| 20260506211333 | 6 | 262 | 1.6 | 4.8 | 0.05 | 1.19 | 1.02 | 98 | 1008.0 |
| 20260506210812 | 6 | 293 | 1.6 | 9.7 | 0.05 | 1.19 | 1.02 | 97 | 1007.9 |
| 20260506210312 | 6 | 278 | 1.6 | 9.7 | 0.08 | 1.19 | 1.02 | 98 | 1007.9 |
| 20260506205844 | 6 | 328 | 1.6 | 8.0 | 0.08 | 1.22 | 1.02 | 98 | 1007.9 |
| 20260506205322 | 6 | 295 | 0.0 | 4.8 | 0.08 | 1.22 | 1.02 | 98 | 1007.9 |
| 20260506204822 | 6 | 221 | 1.6 | 4.8 | 0.08 | 1.22 | 1.02 | 98 | 1008.0 |
| 20260506204329 | 6 | 260 | 0.0 | 4.8 | 0.05 | 1.19 | 0.99 | 98 | 1008.1 |
| 20260506203855 | 6 | 291 | 1.6 | 8.0 | 0.05 | 1.19 | 0.99 | 98 | 1008.1 |
| 20260506203334 | 6 | 304 | 0.0 | 4.8 | 0.05 | 1.19 | 0.99 | 98 | 1008.2 |
| 20260506202819 | 6 | 255 | 1.6 | 4.8 | 0.08 | 1.19 | 0.99 | 98 | 1008.0 |
| 20260506202346 | 6 | 282 | 1.6 | 3.2 | 0.05 | 1.17 | 0.97 | 98 | 1008.1 |
| 20260506201825 | 6 | 294 | 0.0 | 6.4 | 0.05 | 1.17 | 0.97 | 97 | 1008.1 |
| 20260506201331 | 6 | 293 | 1.6 | 6.4 | 0.05 | 1.17 | 0.97 | 97 | 1008.1 |
| 20260506200837 | 6 | 111 | 1.6 | 6.4 | 0.05 | 1.17 | 0.97 | 97 | 1008.0 |
| 20260506200337 | 6 | 290 | 1.6 | 4.8 | 0.03 | 1.14 | 0.94 | 98 | 1008.1 |
| 20260506195822 | 6 | 284 | 1.6 | 6.4 | 0.03 | 1.27 | 0.94 | 97 | 1008.0 |
| 20260506195322 | 6 | 240 | 3.2 | 6.4 | 0.03 | 1.27 | 0.94 | 97 | 1008.0 |
| 20260506194829 | 6 | 314 | 0.0 | 4.8 | 0.03 | 1.27 | 0.94 | 98 | 1008.0 |
| 20260506194335 | 6 | 265 | 0.0 | 8.0 | 0.03 | 1.27 | 0.94 | 97 | 1007.9 |
| 20260506193814 | 6 | 96 | 1.6 | 8.0 | 0.05 | 1.27 | 0.94 | 97 | 1007.9 |
| 20260506193315 | 6 | 295 | 1.6 | 4.8 | 0.05 | 1.27 | 0.94 | 97 | 1007.9 |
| 20260506192822 | 6 | 284 | 1.6 | 4.8 | 0.03 | 1.24 | 0.91 | 97 | 1007.9 |
| 20260506192320 | 6 | 264 | 1.6 | 4.8 | 0.03 | 1.24 | 0.91 | 97 | 1007.9 |
| 20260506191828 | 6 | 235 | 0.0 | 6.4 | 0.03 | 1.24 | 0.91 | 97 | 1007.8 |
| 20260506191327 | 6 | 285 | 1.6 | 6.4 | 0.03 | 1.24 | 0.91 | 97 | 1007.9 |
| 20260506190834 | 6 | 291 | 1.6 | 3.2 | 0.03 | 1.24 | 0.91 | 97 | 1007.7 |
| 20260506190315 | 6 | 288 | 0.0 | 6.4 | 0.03 | 1.24 | 0.91 | 98 | 1007.9 |
| 20260506185823 | 6 | 250 | 0.0 | 6.4 | 0.05 | 1.45 | 0.91 | 98 | 1007.8 |
| 20260506185323 | 6 | 336 | 0.0 | 4.8 | 0.05 | 1.45 | 0.91 | 97 | 1007.9 |
| 20260506184851 | 6 | 294 | 0.0 | 4.8 | 0.05 | 1.45 | 0.91 | 97 | 1007.8 |
| 20260506184330 | 6 | 295 | 0.0 | 1.6 | 0.05 | 1.45 | 0.91 | 98 | 1007.9 |
| 20260506183810 | 6 | 296 | 0.0 | 3.2 | 0.05 | 1.42 | 0.89 | 98 | 1008.0 |
| 20260506183317 | 6 | 25 | 0.0 | 3.2 | 0.05 | 1.42 | 0.89 | 97 | 1007.9 |
| 20260506182824 | 6 | 214 | 0.0 | 3.2 | 0.05 | 1.42 | 0.89 | 97 | 1008.0 |
| 20260506182325 | 6 | 278 | 0.0 | 4.8 | 0.08 | 1.42 | 0.89 | 97 | 1008.2 |
| 20260506181825 | 6 | 219 | 1.6 | 4.8 | 0.08 | 1.42 | 0.89 | 97 | 1008.4 |
| 20260506181311 | 6 | 288 | 0.0 | 4.8 | 0.08 | 1.42 | 0.89 | 97 | 1008.3 |
| 20260506180811 | 6 | 296 | 1.6 | 4.8 | 0.10 | 1.42 | 0.89 | 97 | 1008.6 |
| 20260506180318 | 6 | 288 | 0.0 | 1.6 | 0.10 | 1.42 | 0.89 | 97 | 1008.5 |
| 20260506175816 | 6 | 289 | 0.0 | 3.2 | 0.10 | 1.40 | 0.86 | 97 | 1008.6 |
| 20260506175323 | 6 | 293 | 1.6 | 4.8 | 0.10 | 1.40 | 0.86 | 97 | 1008.6 |
| 20260506174823 | 6 | 295 | 0.0 | 4.8 | 0.10 | 1.40 | 0.86 | 97 | 1008.5 |
| 20260506174329 | 6 | 302 | 1.6 | 4.8 | 0.10 | 1.40 | 0.86 | 97 | 1008.7 |
| 20260506173816 | 6 | 271 | 1.6 | 4.8 | 0.10 | 1.37 | 0.84 | 97 | 1008.7 |
| 20260506173316 | 6 | 242 | 0.0 | 3.2 | 0.10 | 1.37 | 0.84 | 97 | 1008.9 |
| 20260506172822 | 6 | 302 | 0.0 | 3.2 | 0.10 | 1.37 | 0.84 | 97 | 1008.8 |
| 20260506172349 | 6 | 303 | 0.0 | 1.6 | 0.08 | 1.35 | 0.81 | 97 | 1008.8 |
| 20260506171828 | 6 | 63 | 0.0 | 1.6 | 0.10 | 1.35 | 0.81 | 98 | 1008.8 |
| 20260506171334 | 6 | 234 | 0.0 | 8.0 | 0.10 | 1.35 | 0.81 | 97 | 1009.0 |
| 20260506170814 | 6 | 257 | 1.6 | 8.0 | 0.08 | 1.32 | 0.79 | 97 | 1008.9 |
| 20260506170314 | 6 | 222 | 1.6 | 6.4 | 0.10 | 1.32 | 0.79 | 97 | 1008.9 |
| 20260506165821 | 6 | 244 | 1.6 | 6.4 | 0.08 | 1.30 | 0.76 | 97 | 1008.8 |
| 20260506165321 | 6 | 240 | 1.6 | 4.8 | 0.10 | 1.30 | 0.76 | 97 | 1008.8 |
| 20260506164828 | 6 | 291 | 1.6 | 4.8 | 0.13 | 1.30 | 0.76 | 97 | 1008.8 |
| 20260506163817 | 6 | 314 | 0.0 | 6.4 | 0.13 | 1.27 | 0.74 | 97 | 1009.0 |
| 20260506163317 | 6 | 258 | 1.6 | 6.4 | 0.15 | 1.27 | 0.74 | 97 | 1009.1 |
| 20260506162823 | 5 | 295 | 0.0 | 3.2 | 0.18 | 1.27 | 0.74 | 97 | 1009.1 |
| 20260506162406 | 5 | 293 | 0.0 | 3.2 | 0.18 | 1.27 | 0.74 | 97 | 1009.0 |
| 20260506161821 | 5 | 304 | 0.0 | 3.2 | 0.18 | 1.24 | 0.71 | 97 | 1009.2 |
| 20260506161348 | 5 | 117 | 0.0 | 4.8 | 0.18 | 1.24 | 0.71 | 97 | 1009.3 |
| 20260506160834 | 5 | 228 | 0.0 | 4.8 | 0.20 | 1.24 | 0.71 | 97 | 1009.4 |
| 20260506160328 | 5 | 295 | 0.0 | 6.4 | 0.18 | 1.22 | 0.69 | 97 | 1009.3 |
| 20260506155832 | 5 | 304 | 1.6 | 11.3 | 0.20 | 1.22 | 0.69 | 97 | 1009.4 |
| 20260506155312 | 5 | 295 | 1.6 | 11.3 | 0.20 | 1.19 | 0.66 | 97 | 1009.4 |
| 20260506154812 | 5 | 278 | 1.6 | 8.0 | 0.18 | 1.17 | 0.64 | 97 | 1009.5 |
| 20260506154335 | 5 | 287 | 1.6 | 8.0 | 0.15 | 1.14 | 0.61 | 97 | 1009.4 |
| 20260506153821 | 5 | 259 | 1.6 | 8.0 | 0.18 | 1.14 | 0.61 | 97 | 1009.4 |
| 20260506153321 | 5 | 255 | 1.6 | 11.3 | 0.15 | 1.12 | 0.58 | 97 | 1009.6 |
| 20260506152827 | 5 | 297 | 3.2 | 11.3 | 0.13 | 1.09 | 0.56 | 97 | 1009.4 |
| 20260506152326 | 5 | 233 | 3.2 | 9.7 | 0.15 | 1.09 | 0.56 | 97 | 1009.4 |
| 20260506151833 | 5 | 300 | 3.2 | 9.7 | 0.13 | 1.07 | 0.53 | 97 | 1009.4 |
| 20260506151312 | 6 | 281 | 1.6 | 8.0 | 0.13 | 1.07 | 0.53 | 97 | 1009.6 |
| 20260506150812 | 6 | 302 | 1.6 | 6.4 | 0.10 | 1.04 | 0.51 | 96 | 1009.5 |
| 20260506150319 | 6 | 188 | 1.6 | 6.4 | 0.10 | 1.04 | 0.51 | 96 | 1009.3 |
| 20260506145826 | 6 | 304 | 1.6 | 6.4 | 0.10 | 1.02 | 0.48 | 96 | 1009.3 |
| 20260506145326 | 6 | 234 | 1.6 | 6.4 | 0.08 | 0.99 | 0.46 | 96 | 1009.3 |
| 20260506144853 | 6 | 232 | 0.0 | 3.2 | 0.08 | 0.99 | 0.46 | 96 | 1009.1 |
| 20260506144310 | 6 | 270 | 0.0 | 3.2 | 0.08 | 0.99 | 0.46 | 96 | 1009.1 |
| 20260506143818 | 6 | 263 | 0.0 | 4.8 | 0.05 | 0.97 | 0.43 | 96 | 1009.1 |
| 20260506143335 | 6 | 263 | 1.6 | 4.8 | 0.08 | 0.97 | 0.43 | 96 | 1009.2 |
| 20260506142840 | 6 | 251 | 0.0 | 3.2 | 0.08 | 0.97 | 0.43 | 96 | 1009.2 |
| 20260506142326 | 6 | 271 | 0.0 | 3.2 | 0.05 | 0.94 | 0.41 | 96 | 1009.1 |
| 20260506141826 | 6 | 253 | 0.0 | 6.4 | 0.05 | 0.94 | 0.41 | 96 | 1009.0 |
| 20260506141332 | 6 | 275 | 0.0 | 6.4 | 0.05 | 0.94 | 0.41 | 96 | 1009.2 |
| 20260506140818 | 6 | 296 | 0.0 | 4.8 | 0.05 | 0.94 | 0.41 | 96 | 1009.3 |
| 20260506140325 | 6 | 138 | 1.6 | 4.8 | 0.05 | 0.94 | 0.41 | 96 | 1009.4 |
| 20260506135850 | 6 | 293 | 0.0 | 3.2 | 0.03 | 0.91 | 0.38 | 96 | 1009.3 |
| 20260506135329 | 6 | 297 | 0.0 | 3.2 | 0.03 | 0.91 | 0.38 | 96 | 1009.3 |
| 20260506134816 | 6 | 302 | 0.0 | 9.7 | 0.03 | 0.91 | 0.38 | 96 | 1009.2 |
| 20260506134320 | 6 | 250 | 0.0 | 9.7 | 0.03 | 0.91 | 0.38 | 95 | 1009.3 |
| 20260506133827 | 6 | 265 | 1.6 | 6.4 | 0.05 | 0.91 | 0.38 | 95 | 1009.4 |
| 20260506133327 | 6 | 295 | 3.2 | 6.4 | 0.03 | 0.89 | 0.36 | 95 | 1009.2 |
| 20260506132815 | 6 | 291 | 1.6 | 6.4 | 0.03 | 0.89 | 0.36 | 95 | 1009.1 |
| 20260506132314 | 6 | 293 | 1.6 | 6.4 | 0.05 | 0.89 | 0.36 | 96 | 1009.2 |
| 20260506131821 | 7 | 273 | 0.0 | 3.2 | 0.05 | 0.89 | 0.36 | 96 | 1009.3 |
| 20260506131326 | 6 | 257 | 0.0 | 4.8 | 0.05 | 0.89 | 0.36 | 96 | 1009.4 |
| 20260506130833 | 6 | 242 | 1.6 | 4.8 | 0.05 | 0.89 | 0.36 | 96 | 1009.4 |
| 20260506125819 | 6 | 236 | 0.0 | 6.4 | 0.08 | 0.89 | 0.36 | 96 | 1009.6 |
| 20260506125326 | 6 | 224 | 0.0 | 3.2 | 0.08 | 0.89 | 0.36 | 96 | 1009.6 |
| 20260506124826 | 6 | 258 | 0.0 | 3.2 | 0.10 | 0.89 | 0.36 | 96 | 1009.8 |
| 20260506124311 | 6 | 231 | 0.0 | 4.8 | 0.08 | 0.86 | 0.33 | 96 | 1010.0 |
| 20260506123811 | 6 | 229 | 0.0 | 3.2 | 0.08 | 0.86 | 0.33 | 96 | 1009.9 |
| 20260506123311 | 6 | 302 | 1.6 | 3.2 | 0.08 | 0.86 | 0.33 | 96 | 1009.7 |
| 20260506122818 | 6 | 295 | 0.0 | 3.2 | 0.08 | 0.86 | 0.33 | 96 | 1009.7 |
| 20260506122325 | 6 | 319 | 0.0 | 3.2 | 0.05 | 0.84 | 0.30 | 95 | 1009.6 |
| 20260506121824 | 6 | 298 | 1.6 | 4.8 | 0.08 | 0.84 | 0.30 | 95 | 1009.7 |
| 20260506121310 | 6 | 210 | 0.0 | 4.8 | 0.08 | 0.84 | 0.30 | 95 | 1009.7 |
| 20260506120817 | 6 | 188 | 1.6 | 4.8 | 0.08 | 0.84 | 0.30 | 95 | 1009.8 |
| 20260506120317 | 6 | 314 | 1.6 | 4.8 | 0.05 | 0.81 | 0.28 | 94 | 1009.9 |
| 20260506115823 | 6 | 283 | 1.6 | 6.4 | 0.05 | 0.81 | 0.28 | 94 | 1010.1 |
| 20260506115323 | 6 | 124 | 0.0 | 6.4 | 0.05 | 0.81 | 0.28 | 95 | 1010.2 |
| 20260506114830 | 7 | 304 | 1.6 | 3.2 | 0.03 | 0.79 | 0.25 | 95 | 1009.9 |
| 20260506114312 | 7 | 255 | 0.0 | 3.2 | 0.03 | 0.79 | 0.25 | 95 | 1009.9 |
| 20260506113812 | 7 | 249 | 0.0 | 3.2 | 0.03 | 0.79 | 0.25 | 95 | 1009.8 |
| 20260506113319 | 7 | 308 | 0.0 | 4.8 | 0.03 | 0.79 | 0.25 | 94 | 1009.9 |
| 20260506112825 | 7 | 328 | 0.0 | 4.8 | 0.03 | 0.79 | 0.25 | 94 | 1010.1 |
| 20260506112324 | 7 | 278 | 0.0 | 4.8 | 0.03 | 0.79 | 0.25 | 94 | 1010.2 |
| 20260506111824 | 7 | 277 | 0.0 | 4.8 | 0.00 | 0.76 | 0.23 | 94 | 1010.2 |
| 20260506111310 | 7 | 284 | 0.0 | 4.8 | 0.00 | 0.76 | 0.23 | 95 | 1010.0 |
| 20260506110810 | 7 | 290 | 0.0 | 4.8 | 0.00 | 0.76 | 0.23 | 95 | 1009.7 |
| 20260506110309 | 7 | 268 | 0.0 | 4.8 | 0.00 | 0.76 | 0.23 | 96 | 1009.5 |
| 20260506105822 | 7 | 297 | 1.6 | 4.8 | 0.00 | 0.76 | 0.23 | 96 | 1009.4 |
| 20260506105329 | 7 | 288 | 0.0 | 3.2 | 0.00 | 0.76 | 0.23 | 96 | 1009.3 |
| 20260506104829 | 7 | 255 | 0.0 | 1.6 | 0.00 | 0.76 | 0.23 | 96 | 1009.1 |
| 20260506104335 | 7 | 231 | 0.0 | 1.6 | 0.00 | 0.76 | 0.23 | 96 | 1009.1 |
| 20260506103816 | 7 | 309 | 0.0 | 1.6 | 0.00 | 0.76 | 0.23 | 96 | 1009.3 |
| 20260506103318 | 7 | 37 | 0.0 | 1.6 | 0.03 | 0.76 | 0.23 | 95 | 1009.4 |
| 20260506102824 | 7 | 248 | 0.0 | 1.6 | 0.05 | 0.76 | 0.23 | 96 | 1009.6 |
| 20260506102324 | 7 | 139 | 0.0 | 1.6 | 0.05 | 0.76 | 0.23 | 96 | 1009.5 |
| 20260506101832 | 7 | 120 | 0.0 | 1.6 | 0.05 | 0.76 | 0.23 | 96 | 1009.3 |
| 20260506101311 | 7 | 121 | 0.0 | 1.6 | 0.05 | 0.76 | 0.23 | 95 | 1009.3 |
| 20260506100840 | 7 | 120 | 0.0 | 3.2 | 0.05 | 0.76 | 0.23 | 95 | 1009.4 |
| 20260506100318 | 7 | 273 | 0.0 | 3.2 | 0.08 | 0.76 | 0.23 | 95 | 1009.4 |
| 20260506095826 | 8 | 97 | 0.0 | 4.8 | 0.13 | 0.76 | 0.23 | 95 | 1009.4 |
| 20260506095354 | 8 | 57 | 0.0 | 3.2 | 0.13 | 0.76 | 0.23 | 95 | 1009.5 |
| 20260506094813 | 8 | 327 | 0.0 | 1.6 | 0.13 | 0.76 | 0.23 | 95 | 1009.5 |
| 20260506094311 | 8 | 269 | 0.0 | 6.4 | 0.13 | 0.76 | 0.23 | 95 | 1009.6 |
| 20260506093818 | 8 | 238 | 1.6 | 6.4 | 0.10 | 0.74 | 0.20 | 96 | 1009.2 |
| 20260506093318 | 8 | 83 | 0.0 | 3.2 | 0.10 | 0.74 | 0.20 | 96 | 1009.6 |
| 20260506092824 | 8 | 115 | 0.0 | 1.6 | 0.08 | 0.71 | 0.18 | 96 | 1009.6 |
| 20260506092325 | 8 | 117 | 0.0 | 3.2 | 0.08 | 0.71 | 0.18 | 96 | 1009.5 |
| 20260506091832 | 8 | 129 | 0.0 | 8.0 | 0.08 | 0.71 | 0.18 | 96 | 1009.4 |
| 20260506091311 | 9 | 101 | 0.0 | 8.0 | 0.08 | 0.71 | 0.18 | 96 | 1009.2 |
| 20260506090819 | 9 | 94 | 0.0 | 8.0 | 0.08 | 0.71 | 0.18 | 96 | 1009.6 |
| 20260506090318 | 9 | 40 | 1.6 | 3.2 | 0.05 | 0.69 | 0.15 | 96 | 1009.5 |
| 20260506085845 | 9 | 32 | 0.0 | 4.8 | 0.00 | 0.64 | 0.10 | 96 | 1009.8 |
| 20260506085323 | 9 | 108 | 1.6 | 6.4 | 0.00 | 0.64 | 0.10 | 96 | 1009.6 |
| 20260506084830 | 9 | 96 | 0.0 | 1.6 | 0.00 | 0.64 | 0.10 | 96 | 1009.3 |
| 20260506084336 | 9 | 111 | 0.0 | 1.6 | 0.00 | 0.64 | 0.10 | 96 | 1009.6 |
| 20260506083816 | 10 | 98 | 0.0 | 1.6 | 0.00 | 0.64 | 0.10 | 96 | 1009.6 |
| 20260506083316 | 10 | 65 | 0.0 | 6.4 | 0.00 | 0.64 | 0.10 | 96 | 1009.4 |
| 20260506082821 | 10 | 65 | 1.6 | 6.4 | 0.00 | 0.64 | 0.10 | 96 | 1009.4 |
| 20260506082321 | 10 | 79 | 0.0 | 6.4 | 0.00 | 0.64 | 0.10 | 96 | 1009.4 |
| 20260506081848 | 10 | 105 | 1.6 | 6.4 | 0.00 | 0.64 | 0.10 | 96 | 1009.2 |
| 20260506081312 | 10 | 113 | 1.6 | 4.8 | 0.00 | 0.64 | 0.10 | 96 | 1009.3 |
| 20260506080820 | 10 | 357 | 0.0 | 3.2 | 0.00 | 0.64 | 0.10 | 96 | 1009.6 |
| 20260506080319 | 10 | 113 | 0.0 | 3.2 | 0.00 | 0.64 | 0.10 | 96 | 1009.4 |
| 20260506073324 | 10 | 126 | 1.6 | 4.8 | 0.00 | 0.64 | 0.10 | 96 | 1009.4 |
| 20260506072823 | 10 | 58 | 1.6 | 4.8 | 0.00 | 0.64 | 0.10 | 96 | 1009.3 |
| 20260506072330 | 10 | 118 | 0.0 | 1.6 | 0.00 | 0.64 | 0.10 | 96 | 1009.1 |
| 20260506071810 | 10 | 110 | 0.0 | 3.2 | 0.00 | 0.64 | 0.10 | 96 | 1009.5 |
| 20260506071337 | 10 | 77 | 0.0 | 3.2 | 0.00 | 0.64 | 0.10 | 96 | 1009.4 |
| 20260506070816 | 10 | 109 | 0.0 | 3.2 | 0.00 | 0.64 | 0.10 | 96 | 1009.5 |
| 20260506070322 | 10 | 127 | 1.6 | 6.4 | 0.00 | 0.64 | 0.10 | 96 | 1009.2 |
| 20260506062326 | 11 | 79 | 0.0 | 8.0 | 0.05 | 0.64 | 0.10 | 97 | 1009.4 |
| 20260506061833 | 11 | 84 | 1.6 | 8.0 | 0.05 | 0.64 | 0.10 | 97 | 1009.2 |
| 20260506061312 | 11 | 105 | 0.0 | 1.6 | 0.05 | 0.64 | 0.10 | 97 | 1009.0 |
| 20260506060812 | 11 | 109 | 0.0 | 1.6 | 0.05 | 0.64 | 0.10 | 97 | 1009.1 |
| 20260506060320 | 11 | 108 | 0.0 | 1.6 | 0.08 | 0.64 | 0.10 | 97 | 1009.5 |
| 20260506051318 | 11 | 258 | 0.0 | 0.0 | 0.05 | 0.58 | 0.05 | 96 | 1009.0 |
| 20260506050826 | 11 | 258 | 0.0 | 1.6 | 0.05 | 0.58 | 0.05 | 96 | 1008.9 |
| 20260506050333 | 11 | 259 | 0.0 | 1.6 | 0.03 | 0.56 | 0.03 | 96 | 1009.5 |
| 20260506044841 | 11 | 74 | 0.0 | 1.6 | 0.05 | 0.56 | 0.03 | 95 | 1009.1 |
| 20260506044326 | 11 | 75 | 0.0 | 1.6 | 0.05 | 0.56 | 0.03 | 95 | 1008.8 |
| 20260506043833 | 11 | 75 | 0.0 | 1.6 | 0.05 | 0.56 | 0.03 | 95 | 1008.9 |
| 20260506043313 | 11 | 75 | 0.0 | 1.6 | 0.08 | 0.56 | 0.03 | 95 | 1008.6 |
| 20260506042819 | 11 | 67 | 0.0 | 1.6 | 0.10 | 0.56 | 0.03 | 95 | 1008.6 |
| 20260506042319 | 11 | 68 | 0.0 | 3.2 | 0.10 | 0.56 | 0.03 | 95 | 1008.4 |
| 20260506041819 | 11 | 68 | 0.0 | 3.2 | 0.08 | 0.53 | 0.00 | 94 | 1008.6 |
| 20260506041325 | 11 | 82 | 0.0 | 4.8 | 0.08 | 0.53 | 0.00 | 94 | 1008.5 |
| 20260506040825 | 11 | 86 | 1.6 | 4.8 | 0.08 | 0.53 | 0.00 | 94 | 1008.5 |
| 20260506040332 | 11 | 92 | 0.0 | 1.6 | 0.08 | 0.53 | 0.00 | 94 | 1008.7 |
| 20260506035810 | 11 | 78 | 0.0 | 1.6 | 0.08 | 0.51 | 0.51 | 93 | 1008.7 |
| 20260506035317 | 12 | 77 | 0.0 | 3.2 | 0.10 | 0.51 | 0.51 | 93 | 1008.8 |
| 20260506034817 | 11 | 102 | 0.0 | 3.2 | 0.10 | 0.51 | 0.51 | 93 | 1008.8 |
| 20260506034343 | 11 | 89 | 0.0 | 1.6 | 0.10 | 0.51 | 0.51 | 93 | 1008.6 |
| 20260506033829 | 12 | 100 | 0.0 | 1.6 | 0.10 | 0.51 | 0.51 | 93 | 1008.6 |
| 20260506033329 | 12 | 221 | 0.0 | 1.6 | 0.08 | 0.48 | 0.48 | 93 | 1008.7 |
| 20260506032822 | 12 | 222 | 0.0 | 0.0 | 0.05 | 0.46 | 0.46 | 92 | 1008.6 |
| 20260506032323 | 12 | 222 | 0.0 | 1.6 | 0.05 | 0.46 | 0.46 | 92 | 1008.4 |
| 20260506031315 | 12 | 222 | 0.0 | 1.6 | 0.05 | 0.46 | 0.46 | 91 | 1008.3 |
| 20260506030815 | 12 | 223 | 0.0 | 1.6 | 0.05 | 0.46 | 0.46 | 90 | 1008.3 |
| 20260506030344 | 12 | 223 | 0.0 | 0.0 | 0.05 | 0.46 | 0.46 | 89 | 1008.3 |
| 20260506025850 | 13 | 223 | 0.0 | 0.0 | 0.03 | 0.43 | 0.43 | 88 | 1008.5 |
| 20260506025329 | 13 | 223 | 0.0 | 0.0 | 0.00 | 0.41 | 0.41 | 86 | 1008.4 |
| 20260506024835 | 13 | 264 | 0.0 | 1.6 | 0.00 | 0.41 | 0.41 | 86 | 1008.1 |
| 20260506024314 | 13 | 264 | 0.0 | 1.6 | 0.00 | 0.41 | 0.41 | 84 | 1007.9 |
| 20260506023841 | 13 | 264 | 0.0 | 3.2 | 0.00 | 0.41 | 0.41 | 82 | 1008.0 |
| 20260506023320 | 13 | 243 | 0.0 | 6.4 | 0.00 | 0.41 | 0.41 | 83 | 1007.9 |
| 20260506022847 | 13 | 299 | 1.6 | 6.4 | 0.00 | 0.41 | 0.41 | 83 | 1008.0 |
| 20260506022332 | 13 | 270 | 0.0 | 4.8 | 0.00 | 0.41 | 0.41 | 85 | 1007.9 |
| 20260506021833 | 14 | 298 | 1.6 | 6.4 | 0.00 | 0.41 | 0.41 | 87 | 1007.9 |
| 20260506021317 | 14 | 302 | 1.6 | 6.4 | 0.00 | 0.41 | 0.41 | 89 | 1007.7 |
| 20260506020845 | 14 | 304 | 1.6 | 6.4 | 0.00 | 0.41 | 0.41 | 92 | 1007.8 |
| 20260506020323 | 14 | 293 | 1.6 | 6.4 | 0.00 | 0.41 | 0.41 | 95 | 1007.5 |
| 20260506015829 | 14 | 255 | 0.0 | 1.6 | 0.00 | 0.41 | 0.41 | 94 | 1007.2 |
| 20260506015313 | 14 | 79 | 0.0 | 0.0 | 0.00 | 0.41 | 0.41 | 94 | 1007.1 |
| 20260506014815 | 14 | 79 | 0.0 | 0.0 | 0.00 | 0.41 | 0.41 | 94 | 1007.3 |
| 20260506014322 | 14 | 79 | 0.0 | 0.0 | 0.00 | 0.41 | 0.41 | 94 | 1007.4 |
| 20260506013826 | 14 | 79 | 0.0 | 0.0 | 0.00 | 0.41 | 0.41 | 94 | 1007.4 |
| 20260506013335 | 14 | 79 | 0.0 | 0.0 | 0.00 | 0.41 | 0.41 | 94 | 1007.2 |
| 20260506012814 | 14 | 79 | 0.0 | 0.0 | 0.00 | 0.41 | 0.41 | 94 | 1007.0 |
| 20260506012344 | 14 | 79 | 0.0 | 0.0 | 0.00 | 0.41 | 0.41 | 94 | 1006.9 |
| 20260506011823 | 14 | 79 | 0.0 | 0.0 | 0.05 | 0.41 | 0.41 | 94 | 1006.8 |
| 20260506011312 | 14 | 79 | 0.0 | 0.0 | 0.05 | 0.41 | 0.41 | 94 | 1006.7 |
| 20260506010814 | 14 | 79 | 0.0 | 0.0 | 0.05 | 0.41 | 0.41 | 94 | 1006.5 |
| 20260506010314 | 15 | 79 | 0.0 | 0.0 | 0.05 | 0.41 | 0.41 | 93 | 1006.4 |
| 20260506005840 | 15 | 79 | 0.0 | 1.6 | 0.05 | 0.41 | 0.41 | 93 | 1006.3 |
| 20260506005348 | 15 | 79 | 0.0 | 1.6 | 0.05 | 0.41 | 0.41 | 93 | 1006.2 |
| 20260506004835 | 15 | 58 | 0.0 | 1.6 | 0.05 | 0.41 | 0.41 | 92 | 1006.5 |
| 20260506004323 | 15 | 58 | 0.0 | 1.6 | 0.05 | 0.41 | 0.41 | 92 | 1006.3 |
| 20260506003822 | 15 | 58 | 0.0 | 1.6 | 0.05 | 0.41 | 0.41 | 91 | 1006.3 |
| 20260506003336 | 16 | 58 | 0.0 | 1.6 | 0.05 | 0.41 | 0.41 | 89 | 1006.2 |
| 20260506002820 | 16 | 56 | 0.0 | 1.6 | 0.05 | 0.41 | 0.41 | 87 | 1006.2 |
| 20260506002340 | 16 | 78 | 0.0 | 3.2 | 0.03 | 0.38 | 0.38 | 86 | 1005.8 |
| 20260506001826 | 16 | 100 | 1.6 | 3.2 | 0.00 | 0.36 | 0.36 | 85 | 1005.8 |
| 20260506001332 | 16 | 84 | 0.0 | 1.6 | 0.00 | 0.36 | 0.36 | 85 | 1005.9 |
| 20260506000812 | 16 | 81 | 0.0 | 1.6 | 0.00 | 0.36 | 0.36 | 87 | 1005.7 |
| 20260506000332 | 16 | 92 | 0.0 | 1.6 | 0.00 | 0.36 | 0.36 | 87 | 1005.8 |
| 20260505235816 | 16 | 92 | 0.0 | 1.6 | 0.00 | 0.36 | 0.36 | 88 | 1005.7 |
| 20260505235343 | 15 | 92 | 0.0 | 1.6 | 0.00 | 0.36 | 0.36 | 90 | 1005.7 |
| 20260505234823 | 15 | 92 | 0.0 | 1.6 | 0.00 | 0.36 | 0.36 | 90 | 1005.6 |
| 20260505234330 | 16 | 92 | 0.0 | 1.6 | 0.00 | 0.36 | 0.36 | 90 | 1005.6 |
| 20260505233809 | 16 | 92 | 0.0 | 1.6 | 0.00 | 0.36 | 0.36 | 89 | 1005.4 |
| 20260505233318 | 16 | 93 | 0.0 | 1.6 | 0.00 | 0.36 | 0.36 | 89 | 1005.5 |
| 20260505232817 | 16 | 37 | 0.0 | 1.6 | 0.00 | 0.36 | 0.36 | 89 | 1005.5 |
| 20260505232322 | 16 | 37 | 0.0 | 1.6 | 0.00 | 0.36 | 0.36 | 89 | 1005.7 |